Independence, IA

11:38 AM CST on November 15, 2019 (GMT -0600)
Independence Municipal

Weather History for KIIB - September, 2019

Change the Weather History Date:

Thursday, September 19, 2019

  Actual Average Record
Temperature  
Mean Temperature 72 °F -  
Max Temperature 79 °F 73 °F 93 °F (1948)
Min Temperature 65 °F 48 °F 34 °F (1979)
Cooling Degree Days 7    
Growing Degree Days 22 (Base 50)    
Moisture  
Dew Point 67 °F    
Average Humidity 89    
Maximum Humidity 97    
Minimum Humidity 68    
Precipitation  
Precipitation 0.25 in - - ()
Sea Level Pressure  
Sea Level Pressure 30.03 in    
Wind  
Wind Speed 6 mph ()    
Max Wind Speed 13 mph    
Max Gust Speed 17 mph    
Visibility 8.1 miles    
Events Rain    
Averages and records for this station are not official NWS values.
T = Trace of Precipitation, MM = Missing Value Source: Averaged Metar Reports

Daily Weather History Graph

Daily Weather History Graph

Search for Another Location

Airport or City:

Astronomy

Sep. 19, 2019 Rise Set
Actual Time 6:51 AM CDT 7:10 PM CDT
Civil Twilight 6:23 AM CDT 7:38 PM CDT
Nautical Twilight 5:50 AM CDT 8:11 PM CDT
Astronomical Twilight 5:16 AM CDT 8:45 PM CDT
Moon 10:13 PM CDT (9/19) 12:01 PM CDT (9/19)
Length of Visible Light 13h 15m
Length of Day
12h 19m
Waning Gibbous, 74% of the Moon is Illuminated
Sep 19
Waning Gibbous
Sep 21
Last Quarter
Sep 28
New
Oct 5
First Quarter
Oct 13
Full

Hourly Weather History & Observations

Time (CDT) Temp. Dew Point Humidity Pressure Visibility Wind Dir Wind Speed Gust Speed Precip Events Conditions
12:15 AM 68.5 °F 67.5 °F 96% 30.00 in 5.0 mi SE 4.6 mph - N/A   Scattered Clouds
12:35 AM 68.9 °F 67.6 °F 96% 30.00 in 5.0 mi SSE 4.6 mph - N/A   Scattered Clouds
12:55 AM 69.1 °F 68.2 °F 97% 30.01 in 5.0 mi SSE 5.8 mph - N/A   Scattered Clouds
1:15 AM 69.8 °F 68.9 °F 97% 30.01 in 5.0 mi SE 6.9 mph - N/A Rain Light Rain
1:35 AM 70.2 °F 69.1 °F 96% 30.01 in 5.0 mi SSE 6.9 mph - N/A   Scattered Clouds
1:55 AM 70.3 °F 69.1 °F 96% 30.01 in 4.0 mi SSE 5.8 mph - N/A   Mostly Cloudy
2:15 AM 70.5 °F 69.3 °F 96% 30.01 in 5.0 mi SSE 5.8 mph - N/A Rain Light Rain
2:35 AM 70.0 °F 68.9 °F 96% 29.99 in 3.0 mi SSE 6.9 mph - N/A   Scattered Clouds
2:55 AM 70.0 °F 68.9 °F 96% 29.98 in 4.0 mi SE 8.1 mph - N/A Rain Light Rain
3:15 AM 69.6 °F 68.5 °F 96% 29.98 in 3.0 mi SSE 6.9 mph - N/A   Scattered Clouds
3:35 AM 70.0 °F 69.1 °F 97% 29.98 in 5.0 mi SE 5.8 mph - N/A   Clear
3:55 AM 70.5 °F 69.3 °F 96% 29.97 in 5.0 mi SSE 6.9 mph - N/A   Clear
4:15 AM 71.2 °F 69.8 °F 95% 29.97 in 7.0 mi South 6.9 mph - N/A   Scattered Clouds
4:35 AM 71.6 °F 69.6 °F 93% 29.95 in 7.0 mi South 10.4 mph - N/A   Mostly Cloudy
4:55 AM 71.1 °F 69.3 °F 94% 29.95 in 5.0 mi South 4.6 mph - N/A   Scattered Clouds
5:15 AM 71.1 °F 69.3 °F 94% 29.97 in 5.0 mi SSW 6.9 mph - N/A   Scattered Clouds
5:35 AM 70.9 °F 69.1 °F 94% 29.99 in 7.0 mi SSW 4.6 mph - N/A   Scattered Clouds
5:55 AM 71.1 °F 69.3 °F 94% 29.99 in 7.0 mi Calm Calm - N/A   Mostly Cloudy
6:15 AM 70.9 °F 69.3 °F 95% 29.99 in 7.0 mi South 4.6 mph - N/A   Mostly Cloudy
6:35 AM 70.9 °F 69.3 °F 95% 30.02 in 5.0 mi NNW 10.4 mph - N/A   Overcast
6:55 AM 70.9 °F 69.1 °F 94% 30.03 in 5.0 mi NNW 6.9 mph - N/A   Overcast
7:15 AM 70.9 °F 69.1 °F 94% 30.04 in 7.0 mi NNE 3.5 mph - N/A   Overcast
7:35 AM 69.3 °F 66.9 °F 92% 30.06 in 10.0 mi NE 8.1 mph 17.3 mph N/A Rain Light Rain
7:55 AM 68.0 °F 66.4 °F 95% 30.07 in 2.5 mi NNE 8.1 mph - 0.06 in Rain Heavy Rain
8:15 AM 67.3 °F 66.2 °F 96% 30.08 in 5.0 mi East 10.4 mph - 0.02 in Rain Rain
8:55 AM 66.6 °F 65.7 °F 97% 30.09 in 7.0 mi East 8.1 mph - 0.07 in Rain Rain
9:15 AM 66.7 °F 65.8 °F 97% 30.09 in 10.0 mi East 5.8 mph - 0.02 in   Overcast
9:35 AM 67.1 °F 66.2 °F 97% 30.09 in 10.0 mi East 9.2 mph - 0.02 in   Overcast
9:55 AM 67.1 °F 66.2 °F 97% 30.08 in 10.0 mi East 10.4 mph - 0.02 in Rain Light Rain
10:15 AM 67.1 °F 65.8 °F 96% 30.09 in 5.0 mi ESE 10.4 mph - 0.03 in Rain Heavy Rain
10:35 AM 67.1 °F 66.2 °F 97% 30.07 in 7.0 mi East 12.7 mph 16.1 mph 0.09 in Rain Rain
10:55 AM 67.3 °F 66.4 °F 97% 30.07 in 10.0 mi ESE 11.5 mph - 0.10 in Rain Light Rain
11:15 AM 68.0 °F 66.7 °F 96% 30.08 in 10.0 mi East 11.5 mph - N/A Rain Light Rain
11:35 AM 68.7 °F 67.3 °F 95% 30.08 in 10.0 mi SE 12.7 mph - N/A   Mostly Cloudy
11:55 AM 68.7 °F 66.7 °F 93% 30.06 in 10.0 mi ESE 12.7 mph - N/A   Mostly Cloudy
12:15 PM 68.9 °F 66.6 °F 92% 30.06 in 10.0 mi ESE 9.2 mph - N/A   Mostly Cloudy
12:35 PM 69.8 °F 67.1 °F 91% 30.04 in 10.0 mi ESE 9.2 mph - N/A   Scattered Clouds
12:55 PM 72.0 °F 67.6 °F 86% 30.05 in 10.0 mi ESE 8.1 mph - N/A   Scattered Clouds
1:15 PM 75.0 °F 68.0 °F 79% 30.04 in 10.0 mi SE 9.2 mph - N/A   Clear
1:35 PM 75.6 °F 67.8 °F 77% 30.03 in 10.0 mi SE 10.4 mph - N/A   Clear
1:55 PM 76.6 °F 68.0 °F 75% 30.03 in 10.0 mi SSE 6.9 mph - N/A   Clear
2:15 PM 77.7 °F 68.9 °F 74% 30.02 in 10.0 mi SSE 8.1 mph - N/A   Scattered Clouds
2:35 PM 78.4 °F 68.4 °F 71% 30.02 in 10.0 mi South 5.8 mph - N/A   Scattered Clouds
2:55 PM 79.0 °F 68.9 °F 71% 30.02 in 10.0 mi Calm Calm - N/A   Clear
3:15 PM 79.5 °F 68.7 °F 69% 30.02 in 10.0 mi Calm Calm - N/A   Scattered Clouds
3:35 PM 79.2 °F 69.1 °F 71% 30.02 in 10.0 mi Calm Calm - N/A   Scattered Clouds
3:55 PM 78.6 °F 68.2 °F 70% 30.02 in 10.0 mi Calm Calm - N/A   Scattered Clouds
4:15 PM 78.1 °F 68.0 °F 71% 30.02 in 10.0 mi South 6.9 mph - N/A   Clear
4:35 PM 78.3 °F 66.9 °F 68% 30.02 in 10.0 mi SSE 6.9 mph - N/A   Clear
4:55 PM 77.5 °F 66.6 °F 69% 30.03 in 10.0 mi South 6.9 mph - N/A   Clear
5:15 PM 77.0 °F 66.9 °F 71% 30.03 in 10.0 mi Calm Calm - N/A   Clear
5:35 PM 76.1 °F 66.7 °F 73% 30.04 in 10.0 mi South 3.5 mph - N/A   Clear
5:55 PM 75.7 °F 66.7 °F 74% 30.03 in 10.0 mi SSE 5.8 mph - N/A   Clear
6:15 PM 75.2 °F 66.4 °F 74% 30.03 in 10.0 mi SSE 4.6 mph - N/A   Clear
6:35 PM 73.2 °F 66.7 °F 80% 30.03 in 10.0 mi Calm Calm - N/A   Clear
7:15 PM 70.0 °F 66.6 °F 89% 30.03 in 10.0 mi Calm Calm - N/A   Clear
7:35 PM 68.5 °F 66.0 °F 92% 30.03 in 10.0 mi Calm Calm - N/A   Clear
7:55 PM 68.5 °F 66.4 °F 93% 30.03 in 7.0 mi Calm Calm - N/A   Clear
8:15 PM 68.9 °F 66.4 °F 92% 30.03 in 10.0 mi SE 4.6 mph - N/A   Clear
8:55 PM 66.2 °F 64.6 °F 94% 30.04 in 10.0 mi SE 4.6 mph - N/A   Clear
9:15 PM 66.4 °F 65.3 °F 96% 30.04 in 10.0 mi SE 4.6 mph - N/A   Clear
9:35 PM 66.4 °F 65.3 °F 96% 30.04 in 10.0 mi SE 5.8 mph - N/A   Clear
9:55 PM 66.4 °F 65.3 °F 96% 30.04 in 10.0 mi SE 4.6 mph - N/A   Clear
10:15 PM 66.2 °F 64.9 °F 96% 30.04 in 10.0 mi SE 3.5 mph - N/A   Clear
10:35 PM 65.8 °F 64.6 °F 96% 30.04 in 10.0 mi SE 3.5 mph - N/A   Clear
10:55 PM 65.5 °F 64.4 °F 96% 30.04 in 10.0 mi ESE 3.5 mph - N/A   Clear
11:15 PM 65.7 °F 64.6 °F 96% 30.04 in 10.0 mi Calm Calm - N/A   Clear
11:55 PM 65.8 °F 64.6 °F 96% 30.04 in 10.0 mi East 4.6 mph - N/A   Clear